�N����,����,�~����,�C��,���x,�C��,����,���ϕ���,�ő�u�ԕ���,�ő厞����,���˗�,�I�_���x,�n�����x,�ő啗���N��,DTYPE
"19/08/17","00:10",0.0,26.6,83.9,995.3,319.9,0.7,1.4,2.4,0.00,23.7,27.3,"00:01:04",1
"19/08/17","00:20",0.0,26.5,84.5,995.1,309.1,0.8,1.6,326.3,0.00,23.7,27.3,"00:10:32",1
"19/08/17","00:30",0.0,26.5,84.6,995.3,300.4,0.8,1.4,345.5,0.00,23.7,27.2,"00:26:08",1
"19/08/17","00:40",0.0,26.5,84.4,995.1,270.2,0.7,1.1,326.3,0.00,23.7,27.2,"00:34:56",1
"19/08/17","00:50",0.0,26.5,84.3,995.6,305.3,0.7,1.2,333.0,0.00,23.7,27.3,"00:40:32",1
"19/08/17","01:00",0.0,26.6,84.2,995.3,317.9,1.2,2.5,315.9,0.00,23.8,27.2,"00:59:36",1
"19/08/17","01:10",0.0,26.7,84.0,995.3,323.7,1.3,2.4,329.2,0.00,23.8,27.2,"01:08:24",1
"19/08/17","01:20",0.0,26.6,84.0,995.3,338.7,1.2,2.0,347.0,0.00,23.7,27.1,"01:18:16",1
"19/08/17","01:30",0.0,26.4,84.4,995.3,330.2,1.2,2.4,339.0,0.00,23.6,27.3,"01:27:04",1
"19/08/17","01:40",0.0,26.3,85.0,995.3,333.3,1.2,2.0,327.0,0.00,23.6,27.1,"01:36:24",1
"19/08/17","01:50",0.0,26.2,85.6,995.6,326.3,1.1,1.6,342.3,0.00,23.6,27.0,"01:44:08",1
"19/08/17","02:00",0.0,26.1,86.1,995.3,320.9,0.8,1.3,338.5,0.00,23.6,27.1,"01:50:32",1
"19/08/17","02:10",0.0,26.0,86.5,995.3,307.8,0.8,1.6,317.8,0.00,23.6,27.0,"02:03:52",1
"19/08/17","02:20",0.0,26.0,86.6,995.3,323.0,1.3,2.2,342.3,0.00,23.6,26.8,"02:14:48",1
"19/08/17","02:30",0.0,25.9,86.9,995.6,313.0,1.0,1.8,336.5,0.00,23.6,26.9,"02:22:08",1
"19/08/17","02:40",0.0,25.8,87.1,995.6,297.1,1.0,1.8,323.7,0.00,23.5,26.8,"02:31:28",1
"19/08/17","02:50",0.0,25.7,87.4,995.3,290.5,1.0,1.7,337.2,0.00,23.5,26.9,"02:42:16",1
"19/08/17","03:00",0.0,25.6,87.7,995.6,318.5,1.0,2.9,337.1,0.00,23.4,26.9,"02:51:52",1
"19/08/17","03:10",0.0,25.6,87.8,995.8,271.0,0.3,0.8,342.9,0.00,23.5,26.7,"03:00:40",1
"19/08/17","03:20",0.0,25.6,88.0,996.0,271.4,0.6,0.9,266.4,0.00,23.5,26.8,"03:10:24",1
"19/08/17","03:30",0.0,25.6,88.0,995.8,283.9,0.8,1.2,318.5,0.00,23.5,27.1,"03:27:28",1
"19/08/17","03:40",0.0,25.6,87.9,995.3,281.1,0.7,1.0,307.0,0.00,23.5,26.7,"03:32:32",1
"19/08/17","03:50",0.0,25.7,87.9,995.8,272.7,0.7,1.0,264.0,0.00,23.6,26.7,"03:48:16",1
"19/08/17","04:00",0.0,25.7,87.8,996.0,283.0,0.6,1.0,310.2,0.00,23.6,26.7,"03:58:00",1
"19/08/17","04:10",0.0,25.7,87.9,996.0,287.8,0.3,0.8,283.3,0.00,23.6,26.8,"04:00:32",1
"19/08/17","04:20",0.0,25.7,88.1,996.0,263.0,0.1,0.4,276.7,0.00,23.6,26.8,"04:15:36",1
"19/08/17","04:30",0.0,25.5,87.9,996.3,296.2,0.7,1.2,334.8,0.00,23.4,26.8,"04:27:44",1
"19/08/17","04:40",0.0,25.5,88.0,996.3,287.8,0.7,1.0,315.0,0.00,23.4,26.5,"04:38:08",1
"19/08/17","04:50",0.0,25.5,87.8,996.3,293.1,0.8,1.1,323.0,0.00,23.4,26.7,"04:45:52",1
"19/08/17","05:00",0.0,25.5,88.0,996.5,299.3,0.7,1.0,281.8,0.00,23.4,26.7,"04:51:36",1
"19/08/17","05:10",0.0,25.7,88.2,996.3,321.3,0.6,1.4,3.2,0.00,23.6,26.5,"05:05:04",1
"19/08/17","05:20",0.0,25.6,88.3,996.5,314.5,0.7,1.3,337.5,0.00,23.6,26.4,"05:10:02",1
"19/08/17","05:30",0.0,25.5,88.9,996.5,325.5,1.0,1.7,336.7,0.00,23.6,26.7,"05:20:24",1
"19/08/17","05:40",0.0,25.4,88.9,996.5,341.9,1.0,1.6,329.3,0.00,23.5,26.6,"05:39:44",1
"19/08/17","05:50",0.0,25.2,89.4,996.7,285.8,0.5,1.2,322.6,0.00,23.4,26.5,"05:40:24",1
"19/08/17","06:00",0.0,25.0,89.7,996.5,312.2,0.5,1.0,340.6,0.00,23.2,26.5,"05:54:48",1
"19/08/17","06:10",0.0,24.9,90.2,996.7,311.0,0.8,1.2,323.3,0.00,23.2,26.3,"06:04:16",1
"19/08/17","06:20",0.0,24.9,90.4,997.2,321.4,1.0,1.6,342.9,0.00,23.3,26.4,"06:19:20",1
"19/08/17","06:30",0.0,25.0,90.6,997.0,307.9,0.8,1.4,325.5,0.00,23.4,26.4,"06:26:56",1
"19/08/17","06:40",0.0,25.2,90.7,997.2,327.0,1.0,1.4,333.5,0.00,23.6,26.6,"06:31:04",1
"19/08/17","06:50",0.0,25.3,90.3,997.2,306.8,0.8,1.4,332.5,0.00,23.6,26.4,"06:40:24",1
"19/08/17","07:00",0.0,25.6,90.4,997.4,325.3,1.0,1.3,335.8,0.03,24.0,26.6,"06:53:12",1
"19/08/17","07:10",0.0,25.9,90.0,997.4,270.7,0.5,1.0,300.1,0.04,24.2,26.5,"07:00:40",1
"19/08/17","07:20",0.0,26.2,89.1,997.2,317.1,0.6,1.3,331.0,0.06,24.3,26.4,"07:11:36",1
"19/08/17","07:30",0.0,27.3,86.9,997.2,316.0,0.3,1.0,341.5,0.07,25.0,26.5,"07:20:56",1
"19/08/17","07:40",0.0,27.4,84.0,997.4,1.3,0.5,1.2,340.1,0.09,24.5,26.6,"07:34:56",1
"19/08/17","07:50",0.0,28.0,82.5,997.2,53.2,0.5,1.3,13.3,0.11,24.8,26.5,"07:41:36",1
"19/08/17","08:00",0.0,28.6,80.9,996.7,108.0,0.5,1.4,54.4,0.14,25.0,26.7,"07:57:36",1
"19/08/17","08:10",0.0,28.4,78.9,997.0,135.5,0.5,1.2,127.7,0.16,24.4,26.7,"08:08:48",1
"19/08/17","08:20",0.0,29.2,78.4,997.7,112.9,0.5,1.4,65.9,0.18,25.1,26.7,"08:10:02",1
"19/08/17","08:30",0.0,29.4,76.4,997.7,89.0,0.8,1.4,122.5,0.19,24.9,27.0,"08:22:16",1
"19/08/17","08:40",0.0,29.7,75.9,997.9,60.5,0.6,1.7,6.5,0.20,25.0,27.1,"08:34:24",1
"19/08/17","08:50",0.0,29.7,74.3,997.9,52.2,0.8,1.9,117.9,0.27,24.7,27.3,"08:49:36",1
"19/08/17","09:00",0.0,30.0,74.4,998.2,88.0,0.6,2.0,52.2,0.19,25.0,27.3,"08:52:24",1
"19/08/17","09:10",0.0,29.3,77.4,998.2,176.2,0.5,1.9,119.0,0.11,25.0,27.3,"09:00:48",1
"19/08/17","09:20",0.0,29.3,75.9,997.9,225.5,0.6,2.9,212.6,0.04,24.6,27.3,"09:18:08",1
"19/08/17","09:30",0.0,29.9,71.8,997.9,284.7,1.2,2.7,221.3,0.26,24.3,27.3,"09:26:48",1
"19/08/17","09:40",0.0,30.6,69.5,998.4,225.7,1.1,2.8,216.9,0.40,24.4,27.5,"09:34:48",1
"19/08/17","09:50",0.0,30.9,69.7,998.4,347.0,1.3,3.5,332.6,0.38,24.8,27.7,"09:43:28",1
"19/08/17","10:00",0.0,30.9,68.7,998.9,296.9,0.7,1.8,355.4,0.41,24.5,27.9,"09:52:08",1
"19/08/17","10:10",0.0,31.1,68.2,999.1,27.9,0.7,2.4,352.0,0.37,24.6,28.0,"10:01:12",1
"19/08/17","10:20",0.0,31.4,68.8,999.3,107.1,1.0,2.2,9.7,0.42,25.0,28.0,"10:11:52",1
"19/08/17","10:30",0.0,31.4,64.8,999.1,307.5,1.3,3.7,345.1,0.42,24.0,28.2,"10:23:36",1
"19/08/17","10:40",0.0,30.5,66.6,999.1,328.8,1.2,3.9,351.9,0.19,23.6,28.4,"10:30:56",1
"19/08/17","10:50",0.0,30.8,66.6,998.9,309.9,0.6,1.4,2.0,0.16,23.9,28.4,"10:47:12",1
"19/08/17","11:00",0.0,31.2,66.6,998.6,22.3,0.6,1.6,353.6,0.17,24.3,28.4,"10:50:32",1
"19/08/17","11:10",0.0,32.1,64.2,998.9,359.9,0.6,1.7,71.1,0.49,24.5,28.7,"11:00:40",1
"19/08/17","11:20",0.0,31.8,64.8,998.6,195.7,2.1,3.9,216.1,0.41,24.4,28.8,"11:13:04",1
"19/08/17","11:30",0.0,31.3,66.0,998.9,184.2,1.8,3.6,224.7,0.36,24.2,28.9,"11:22:00",1
"19/08/17","11:40",0.0,31.9,63.5,998.9,187.8,1.7,3.5,210.0,0.57,24.1,29.0,"11:34:24",1
"19/08/17","11:50",0.0,32.5,65.1,999.1,129.6,1.0,2.1,100.9,0.54,25.1,29.2,"11:49:44",1
"19/08/17","12:00",0.0,31.3,65.3,999.3,143.3,1.5,2.9,150.4,0.28,24.0,29.4,"11:51:12",1
"19/08/17","12:10",0.0,31.0,65.5,998.4,351.6,1.0,2.6,317.6,0.09,23.8,29.4,"12:08:16",1
"19/08/17","12:20",0.0,31.7,61.7,998.2,266.9,0.7,2.1,234.5,0.33,23.5,29.6,"12:17:28",1
"19/08/17","12:30",0.0,33.2,60.3,998.6,217.1,1.2,2.5,220.0,0.52,24.5,29.8,"12:28:40",1
"19/08/17","12:40",0.0,32.9,55.2,998.9,230.2,1.7,5.1,235.6,0.57,22.8,29.8,"12:34:08",1
"19/08/17","12:50",0.0,33.1,54.8,998.6,241.5,1.7,3.7,217.1,0.57,22.8,29.8,"12:47:12",1
"19/08/17","13:00",0.0,33.1,53.3,998.4,222.8,2.0,4.7,220.5,0.57,22.4,30.2,"12:53:36",1
"19/08/17","13:10",0.0,33.7,56.0,998.9,271.3,1.0,3.3,228.0,0.57,23.7,30.3,"13:01:04",1
"19/08/17","13:20",0.0,33.3,55.0,999.1,257.8,1.3,3.9,308.3,0.56,23.1,30.4,"13:14:56",1
"19/08/17","13:30",0.0,33.7,52.6,998.9,295.1,1.1,2.7,341.1,0.56,22.7,30.6,"13:22:32",1
"19/08/17","13:40",0.0,34.4,53.9,998.9,345.5,1.5,4.7,338.1,0.57,23.8,30.7,"13:32:08",1
"19/08/17","13:50",0.0,33.8,49.6,998.6,294.9,1.3,3.5,221.5,0.56,21.8,31.0,"13:42:00",1
"19/08/17","14:00",0.0,33.9,50.8,998.6,290.9,1.3,3.7,255.8,0.54,22.3,31.1,"13:56:00",1
"19/08/17","14:10",0.0,34.1,50.1,998.9,336.1,1.7,3.3,7.3,0.53,22.3,31.1,"14:09:04",1
"19/08/17","14:20",0.0,34.2,49.7,998.9,331.5,1.6,3.5,332.0,0.52,22.2,31.3,"14:12:40",1
"19/08/17","14:30",0.0,34.5,51.6,999.1,314.4,1.1,2.8,359.9,0.51,23.1,31.2,"14:27:20",1
"19/08/17","14:40",0.0,33.9,50.4,999.1,237.8,1.5,4.1,217.4,0.43,22.2,31.3,"14:35:28",1
"19/08/17","14:50",0.0,34.1,51.9,998.6,209.6,2.5,4.7,199.2,0.42,22.9,31.2,"14:40:48",1
"19/08/17","15:00",0.0,33.9,55.5,998.4,201.4,2.1,4.5,218.7,0.41,23.8,31.0,"14:50:08",1
"19/08/17","15:10",0.0,33.8,56.0,998.4,188.3,2.7,5.7,227.1,0.41,23.8,31.0,"15:09:04",1
"19/08/17","15:20",0.0,34.1,57.9,998.2,193.0,2.1,4.3,206.4,0.43,24.7,31.2,"15:13:52",1
"19/08/17","15:30",0.0,34.1,55.5,998.2,217.4,2.3,6.3,209.8,0.41,24.0,31.1,"15:21:12",1
"19/08/17","15:40",0.0,34.0,54.5,998.2,223.7,1.6,3.4,200.9,0.38,23.6,30.8,"15:36:08",1
"19/08/17","15:50",0.0,33.9,53.6,997.9,214.5,2.5,4.8,223.9,0.36,23.2,31.1,"15:46:40",1
"19/08/17","16:00",0.0,33.5,55.8,997.9,197.5,2.1,5.2,213.6,0.23,23.5,31.0,"15:50:40",1
"19/08/17","16:10",0.0,34.0,56.5,997.7,192.5,0.8,2.6,198.1,0.19,24.2,31.0,"16:00:16",1
"19/08/17","16:20",0.0,34.6,53.7,997.9,248.2,1.2,3.6,207.5,0.29,23.9,30.9,"16:19:20",1
"19/08/17","16:30",0.0,34.7,52.0,997.7,232.9,1.2,3.3,201.8,0.27,23.4,30.9,"16:22:56",1
"19/08/17","16:40",0.0,34.7,50.6,997.4,254.5,1.2,3.7,222.1,0.24,23.0,30.8,"16:38:40",1
"19/08/17","16:50",0.0,34.4,51.2,997.7,248.6,1.3,3.2,232.0,0.22,22.9,30.7,"16:44:00",1
"19/08/17","17:00",0.0,34.1,52.7,997.7,225.1,1.5,3.1,222.6,0.19,23.1,30.7,"16:59:04",1
"19/08/17","17:10",0.0,33.5,54.5,997.2,212.4,1.3,3.3,213.7,0.10,23.1,30.7,"17:02:24",1
"19/08/17","17:20",0.0,33.9,54.1,997.2,227.3,1.2,3.5,201.0,0.15,23.4,30.5,"17:14:08",1
"19/08/17","17:30",0.0,33.8,54.3,997.4,220.7,1.1,2.6,203.8,0.12,23.3,30.6,"17:21:28",1
"19/08/17","17:40",0.0,33.8,54.3,997.7,236.2,0.6,1.9,262.9,0.10,23.3,30.4,"17:30:08",1
"19/08/17","17:50",0.0,33.7,53.9,997.2,248.0,0.7,3.5,225.1,0.08,23.1,30.3,"17:40:02",1
"19/08/17","18:00",0.0,33.2,54.9,997.2,237.6,1.2,3.1,230.6,0.06,23.0,30.4,"17:57:12",1
"19/08/17","18:10",0.0,33.0,55.7,997.2,260.4,0.8,2.5,326.1,0.05,23.0,30.2,"18:08:24",1
"19/08/17","18:20",0.0,32.7,57.0,997.0,249.6,0.7,1.7,251.2,0.03,23.1,30.2,"18:14:00",1
"19/08/17","18:30",0.0,32.3,57.5,997.0,239.4,0.8,2.4,228.2,0.01,22.9,30.2,"18:28:32",1
"19/08/17","18:40",0.0,32.0,59.6,996.5,235.4,0.8,2.6,228.1,0.00,23.2,30.2,"18:35:04",1
"19/08/17","18:50",0.0,31.3,63.8,996.3,343.3,0.8,1.4,347.4,0.00,23.7,29.9,"18:47:04",1
"19/08/17","19:00",0.0,30.4,67.4,996.0,350.0,1.0,1.8,351.6,0.00,23.7,29.9,"18:52:00",1
"19/08/17","19:10",0.0,29.6,71.0,996.0,349.1,0.6,1.2,345.3,0.00,23.8,29.9,"19:06:00",1
"19/08/17","19:20",0.0,29.1,73.2,995.8,355.4,0.3,0.9,350.5,0.00,23.8,29.5,"19:10:56",1
"19/08/17","19:30",0.0,28.5,75.3,995.6,319.3,0.3,1.0,339.0,0.00,23.7,29.5,"19:27:44",1
"19/08/17","19:40",0.0,28.1,76.3,996.0,294.4,0.6,1.4,347.4,0.00,23.6,29.4,"19:36:16",1
"19/08/17","19:50",0.0,28.0,77.4,996.0,317.3,0.5,1.6,331.2,0.00,23.7,29.5,"19:42:08",1
"19/08/17","20:00",0.0,27.8,77.7,996.3,277.3,0.7,1.3,312.6,0.00,23.6,29.2,"19:59:12",1
"19/08/17","20:10",0.0,27.8,78.4,996.5,315.6,1.3,3.2,339.1,0.00,23.7,28.9,"20:03:44",1
"19/08/17","20:20",0.0,27.7,78.2,997.2,348.4,0.8,1.9,324.6,0.00,23.6,29.0,"20:10:02",1
"19/08/17","20:30",0.0,27.6,78.2,997.0,309.3,0.8,2.0,332.5,0.00,23.5,28.8,"20:28:40",1
"19/08/17","20:40",0.0,27.4,79.0,997.2,317.0,0.8,1.4,335.9,0.00,23.5,28.7,"20:30:08",1
"19/08/17","20:50",0.0,27.0,80.6,997.4,301.3,1.0,1.8,327.4,0.00,23.4,28.8,"20:43:52",1
"19/08/17","21:00",0.0,27.0,80.8,998.2,319.1,1.5,2.7,317.0,0.00,23.5,28.6,"20:57:44",1
"19/08/17","21:10",0.0,27.0,80.4,997.9,302.6,0.8,1.7,335.8,0.00,23.4,28.7,"21:00:56",1
"19/08/17","21:20",0.0,26.8,80.5,997.9,302.5,0.8,1.6,321.5,0.00,23.2,28.6,"21:13:20",1
"19/08/17","21:30",0.0,26.6,81.0,998.4,288.3,0.8,1.8,307.1,0.00,23.1,28.3,"21:24:32",1
"19/08/17","21:40",0.0,26.6,81.8,998.2,314.8,1.1,3.2,326.7,0.00,23.3,28.3,"21:34:48",1
"19/08/17","21:50",0.0,26.4,81.9,998.2,304.3,1.1,1.9,335.7,0.00,23.1,28.3,"21:44:08",1
"19/08/17","22:00",0.0,26.4,82.1,998.4,308.5,1.1,2.2,331.2,0.00,23.1,28.1,"21:58:24",1
"19/08/17","22:10",0.0,26.5,81.9,998.2,335.9,2.0,3.3,336.1,0.00,23.2,28.1,"22:05:04",1
"19/08/17","22:20",0.0,26.5,81.4,998.4,323.4,1.2,2.0,352.5,0.00,23.1,28.0,"22:13:20",1
"19/08/17","22:30",0.0,26.2,82.0,998.2,287.9,0.8,1.2,304.5,0.00,22.9,27.8,"22:23:52",1
"19/08/17","22:40",0.0,26.2,82.0,998.4,305.2,1.0,2.0,307.0,0.00,22.9,27.8,"22:35:36",1
"19/08/17","22:50",0.0,26.1,82.2,998.4,308.3,1.2,2.4,345.4,0.00,22.9,27.7,"22:48:08",1
"19/08/17","23:00",0.0,26.2,82.2,998.6,332.9,1.3,2.5,330.1,0.00,23.0,27.8,"22:51:36",1
"19/08/17","23:10",0.0,26.1,82.7,998.9,338.2,1.6,3.2,359.9,0.00,23.0,27.7,"23:08:56",1
"19/08/17","23:20",0.0,26.0,83.2,999.1,332.2,1.5,2.7,352.8,0.00,23.0,27.7,"23:14:08",1
"19/08/17","23:30",0.0,25.9,83.4,998.9,332.0,1.8,3.6,330.3,0.00,22.9,27.7,"23:26:08",1
"19/08/17","23:40",0.0,25.8,83.7,998.9,320.5,1.1,1.9,337.8,0.00,22.9,27.5,"23:30:08",1
"19/08/17","23:50",0.0,25.7,84.1,998.6,288.8,0.7,1.2,320.3,0.00,22.9,27.3,"23:41:28",1
"19/08/17","24:00",0.0,25.5,84.6,999.1,297.2,0.7,1.3,328.9,0.00,22.8,27.6,"23:56:32",1
